SCP
4 3 3 3 4 5 5 5 5 5 4 3 3 3 3 2 2 2 2 1 1 2 2 3 5 6 7 7 7 6 5 4 3 3 3 2 1 1 1 1 2 2 2
5 5 5 4 6 7 7 7 7 6 5 4 3 3 3 3 2 2 2 2 2 2 2 3 4 6 7 7 7 7 6 5 3 3 3 2 1 1 1 1 1 1 1
5 7 8 9 11 13 12 11 10 8 5 4 3 3 3 3 3 3 3 2 2 1 2 2 3 5 7 7 7 7 6 5 4 3 3 3 3 2 2 1 1 1 1
4 6 8 12 16 18 16 12 9 7 5 4 3 3 2 2 3 3 3 2 2 1 1 2 3 4 5 6 6 6 6 5 5 4 3 4 5 4 3 2 2 2 2
4 4 7 10 14 16 13 9 7 6 5 4 4 3 2 2 3 3 2 2 2 1 1 2 2 3 3 3 4 4 5 5 5 4 3 4 5 5 4 3 3 3 3
3 4 6 8 9 9 8 7 6 6 6 5 4 3 3 3 2 2 2 2 2 2 1 2 2 3 2 2 2 2 3 3 3 3 3 3 3 4 3 3 3 3 2
3 4 7 7 7 6 6 7 6 5 5 4 4 4 4 3 3 2 2 2 1 2 2 2 3 3 3 2 2 2 2 2 2 2 2 3 3 3 2 2 2 2 1
3 4 6 7 6 5 6 7 7 6 5 4 4 4 4 3 3 3 3 2 1 2 2 2 3 3 3 2 2 2 2 2 2 2 2 3 3 3 3 3 2 2 1
4 5 6 7 6 5 6 7 7 7 6 5 5 4 4 4 3 3 3 2 2 2 2 3 3 3 3 2 2 2 2 2 2 2 2 2 2 2 3 3 3 3 3
4 5 6 7 7 6 6 6 7 7 7 6 5 4 4 4 4 4 3 2 2 2 2 2 3 3 2 2 2 2 2 2 2 2 2 2 2 2 2 3 4 4 4
5 5 6 8 8 7 7 7 7 7 8 7 6 5 5 4 4 4 3 3 2 2 2 2 2 3 3 3 2 2 2 2 2 2 2 2 2 2 2 3 3 4 4
6 6 7 9 10 11 11 9 7 7 7 7 7 7 6 4 4 4 4 3 3 3 3 3 3 3 3 3 3 2 2 2 2 2 2 2 2 2 2 2 2 2 3
7 7 8 11 14 18 17 13 9 7 8 9 10 9 7 5 4 4 4 3 3 4 4 5 5 4 3 3 3 2 2 2 2 2 2 2 2 2 2 2 2 2 2
6 7 9 13 18 23 22 16 11 9 10 11 11 9 7 6 5 4 4 3 4 4 5 5 5 4 3 3 3 2 2 2 2 2 2 2 2 2 2 2 2 2 2
5 6 9 14 20 24 25 19 13 9 9 10 9 8 7 7 6 5 4 4 4 4 5 5 4 3 3 2 2 2 2 2 2 2 3 2 2 2 1 1 2 2 2
5 5 9 14 19 24 25 20 13 8 7 7 7 6 6 6 6 6 5 5 5 5 5 5 4 3 2 2 2 2 2 2 2 2 2 2 2 1 1 1 1 2 2
4 5 7 12 19 23 22 18 11 7 6 6 5 5 4 4 5 6 6 5 6 6 6 5 5 4 2 2 1 1 1 1 2 2 2 1 1 1 1 1 1 1 1
7 7 9 13 18 19 17 13 9 7 6 5 5 4 4 3 4 5 5 6 6 6 6 6 5 4 3 1 1 1 1 1 1 1 1 1 1 1 1 1 1 1 1
10 11 12 14 14 12 11 9 8 6 5 5 4 4 5 5 5 5 6 7 7 6 6 5 4 4 3 1 1 0 1 1 1 1 1 1 1 1 1 1 1 1 1
11 11 11 11 10 9 8 8 7 6 5 5 6 6 7 7 6 6 7 7 6 5 4 3 3 3 3 2 1 1 2 2 2 2 2 1 1 1 1 1 1 1 1
9 9 8 8 8 8 8 8 7 7 7 7 7 7 6 6 6 6 6 6 5 4 3 3 2 2 2 2 1 1 2 3 3 3 3 2 1 0 0 1 1 1 1
8 8 6 7 7 7 7 8 9 9 8 7 7 6 4 4 4 5 5 4 4 3 3 3 3 2 2 2 1 1 1 2 3 3 3 2 1 0 0 0 0 0 0
8 6 5 5 6 6 6 7 8 8 7 5 4 4 4 4 5 5 4 4 3 3 3 3 3 3 3 3 2 1 0 1 1 2 1 1 0 0 0 0 0 0 0
6 5 4 4 5 5 5 5 6 6 5 4 3 3 4 4 5 4 3 3 2 2 3 3 3 3 3 3 3 2 1 0 0 1 0 0 0 0 0 0 0 0 0
5 5 5 5 5 5 5 4 4 4 4 3 3 3 4 4 4 3 2 2 2 2 2 2 2 2 2 3 3 2 1 0 0 0 0 0 0 0 0 0 0 0 0
6 5 5 5 5 5 4 4 4 4 4 3 3 3 3 3 3 2 1 1 1 1 1 1 1 2 1 1 1 1 1 0 0 0 0 0 0 0 1 1 0 0 0
Wind_Speed
8 7 6 6 5 4 3 3 2 1 1 1 1 1 1 1 1 1 1 1 1 1 1 1 0 1 1 0 1 1 2 2 1 1 2 2 2 2 2 2 2 2 3
9 7 6 6 5 4 3 3 2 1 1 1 0 0 1 1 1 1 2 2 2 2 1 1 1 0 0 0 1 1 1 2 1 1 1 1 1 1 2 2 2 2 2
10 8 6 5 5 5 4 3 3 2 1 1 1 1 0 1 1 1 1 1 1 1 2 1 1 1 0 0 1 1 1 2 2 1 1 1 1 1 1 1 1 1 1
9 9 8 6 6 6 6 4 4 3 2 1 1 1 1 1 1 1 1 1 1 1 1 1 1 1 1 0 1 0 1 2 2 2 1 1 1 1 1 1 1 1 2
9 9 8 7 6 6 7 6 4 3 2 1 1 1 2 1 1 1 1 1 1 1 2 2 2 1 1 1 1 1 1 1 2 2 2 2 1 2 1 2 2 2 1
9 8 8 8 6 6 6 6 5 3 2 1 1 1 2 3 3 3 2 1 0 1 2 2 2 1 1 1 1 1 2 2 2 2 2 2 1 2 1 2 2 2 1
10 9 9 8 7 7 6 7 6 4 3 2 1 1 1 1 1 2 2 2 1 1 2 2 2 2 2 1 2 1 2 2 2 2 2 2 2 2 1 1 2 2 2
10 9 9 8 8 8 7 7 6 4 3 2 1 0 1 1 1 1 2 2 2 2 2 1 1 1 2 2 2 1 1 1 2 3 3 3 3 2 2 1 1 2 2
9 9 9 8 8 8 7 7 6 4 3 2 2 1 1 1 2 2 1 2 2 1 1 1 1 1 1 2 2 1 2 2 2 2 2 2 3 3 2 2 1 1 2
9 9 8 8 7 8 7 7 6 4 4 3 1 1 1 1 0 1 2 2 2 2 1 1 1 1 1 2 2 2 2 2 2 2 3 3 3 3 3 2 2 2 2
8 8 8 7 7 7 7 6 5 5 4 3 2 1 1 1 1 1 1 2 2 2 2 2 2 1 1 1 2 2 2 2 2 2 2 3 3 3 3 3 2 2 2
7 8 8 8 6 6 6 5 4 5 4 4 3 2 1 1 1 1 1 1 1 1 1 2 2 2 2 2 2 3 3 3 2 2 3 3 3 3 3 3 3 2 2
6 8 8 7 6 6 5 4 4 4 4 4 3 2 1 1 0 1 1 1 1 1 2 2 2 3 3 3 3 3 3 3 3 2 2 3 3 3 3 3 3 3 3
6 7 6 6 6 5 4 4 3 3 3 3 3 2 1 1 0 1 1 1 1 1 2 2 2 2 2 3 4 3 3 3 3 3 2 2 3 3 3 3 3 3 3
5 6 5 5 5 5 4 4 4 3 3 2 2 2 2 1 0 1 1 1 1 1 1 2 2 3 2 4 4 4 4 3 3 3 3 3 3 4 3 3 3 4 3
5 6 6 6 5 4 3 4 3 3 3 2 2 2 1 1 0 0 0 0 1 1 2 2 2 3 4 6 7 5 4 3 2 3 3 3 2 3 3 4 4 4 3
5 5 6 6 5 6 4 3 3 3 3 2 1 1 1 1 1 1 1 1 1 1 1 2 2 2 3 5 6 7 4 3 2 2 2 3 3 3 3 3 3 3 4
4 4 5 6 6 6 6 4 3 2 2 2 1 1 1 1 1 1 1 0 0 1 1 1 1 1 2 4 5 6 3 3 3 2 2 2 2 3 4 3 3 3 3
4 4 4 5 4 4 4 3 3 2 2 2 1 1 1 1 1 1 1 1 1 1 1 0 0 1 1 2 3 4 3 2 3 2 1 1 1 3 4 3 3 4 4
4 5 4 4 4 3 3 3 2 2 1 1 1 1 1 1 1 1 1 1 1 1 1 1 1 1 0 1 2 3 2 2 3 2 1 2 2 3 4 3 3 4 4
6 5 4 4 4 4 4 3 2 1 1 2 2 1 1 1 1 1 1 1 1 1 1 1 1 0 0 1 1 1 1 2 3 3 2 1 2 3 4 4 3 5 5
5 5 4 4 4 4 3 3 2 2 2 2 1 1 0 2 1 1 1 1 1 2 2 1 1 0 0 1 1 1 2 3 3 3 2 3 4 4 5 4 5 6 5
5 4 4 4 4 3 2 2 2 2 1 1 1 0 0 1 1 1 1 1 1 2 2 1 1 1 0 0 0 1 3 4 2 2 3 4 5 5 3 3 5 4 3
4 4 4 3 3 3 2 2 2 1 1 1 0 1 1 1 1 1 1 1 1 1 2 2 2 1 1 1 1 1 2 2 2 2 3 5 5 4 3 3 2 2 2
3 3 3 3 3 3 3 2 2 1 1 1 2 3 2 2 2 1 1 1 0 0 1 2 2 2 2 2 2 2 2 2 2 4 3 2 2 2 2 2 2 2 2
3 2 3 3 3 3 3 2 1 1 1 2 2 3 2 2 2 2 1 1 2 2 2 2 1 0 0 2 3 3 3 4 4 3 3 3 2 2 2 2 2 2 2
Wind_Direction
137 135 136 133 125 119 119 111 100 82 37 22 19 0 7 355 27 69 48 5 339 357 8 356 333 334 69 64 318 292 279 278 280 285 278 261 251 212 207 225 195 183 177
143 145 151 145 140 134 126 123 123 117 107 91 49 320 333 315 53 39 60 13 342 334 349 20 329 358 36 49 316 315 301 281 265 260 271 266 268 276 241 216 196 191 174
152 153 157 153 149 145 140 121 109 110 86 65 58 10 29 328 24 38 57 7 324 339 352 336 334 340 319 123 272 300 282 284 279 251 248 250 243 285 274 248 213 187 191
156 158 161 159 154 147 140 118 107 103 94 83 26 339 33 10 6 23 57 10 352 360 2 336 346 343 348 11 287 286 299 294 305 298 271 286 330 256 283 288 245 219 212
155 157 159 159 154 150 143 131 121 115 101 79 38 351 11 343 5 31 59 46 35 15 22 24 8 12 351 352 327 339 321 318 312 307 302 301 301 281 259 275 278 260 237
154 154 151 150 150 146 138 133 126 124 124 106 59 33 355 349 3 0 1 349 55 51 30 38 16 7 356 349 347 354 339 327 319 320 314 306 291 296 278 275 274 269 268
148 150 148 145 144 138 131 123 120 123 120 115 79 36 329 315 339 342 336 338 13 53 43 38 24 358 347 345 348 355 354 347 334 329 326 318 304 297 289 285 287 289 274
143 145 146 147 146 140 133 128 131 136 132 121 121 81 308 311 0 358 340 3 12 37 69 57 15 355 342 345 351 354 348 353 330 329 337 318 316 308 299 283 275 292 281
135 141 142 141 139 139 136 133 134 139 137 132 138 124 53 32 14 350 357 12 358 8 68 56 17 354 339 341 340 342 333 341 329 325 331 322 314 313 316 306 289 272 280
139 141 136 133 133 134 130 133 136 139 130 124 134 132 123 107 56 20 22 11 356 2 12 22 360 332 336 336 329 322 329 321 327 326 341 334 324 319 319 311 304 286 267
135 133 128 130 133 132 131 133 138 140 138 131 116 92 101 119 118 64 38 22 11 12 357 342 330 330 336 328 322 317 315 310 324 326 332 322 318 324 315 322 322 322 317
133 136 135 133 134 131 129 134 143 145 144 138 132 130 123 94 55 58 62 48 14 3 4 359 349 342 346 338 323 319 324 313 312 316 322 320 325 328 328 329 320 321 304
138 137 134 132 134 130 128 136 146 144 142 140 136 133 133 125 54 36 36 20 14 16 16 12 360 351 351 342 330 325 316 319 316 314 318 319 330 333 335 327 319 318 318
128 126 130 130 126 124 124 130 121 121 124 126 136 142 146 138 126 66 45 12 21 38 13 3 354 344 348 343 337 328 313 320 327 334 337 338 340 339 325 319 325 321 321
130 123 129 120 119 116 121 120 112 102 98 102 106 111 122 146 140 92 64 28 15 3 2 3 5 351 358 2 354 330 314 319 332 342 345 357 25 26 360 343 345 332 319
148 141 141 128 125 121 122 116 111 112 106 93 83 82 82 82 84 97 164 68 30 4 12 9 12 1 12 20 14 355 330 334 341 336 342 339 29 23 8 358 353 346 319
146 144 141 140 136 132 119 105 105 111 111 105 97 78 69 52 22 323 39 40 4 358 15 16 18 23 29 19 8 358 341 336 328 322 323 322 358 10 357 341 326 324 321
131 130 134 138 140 136 130 130 127 119 121 118 97 76 59 51 30 353 9 8 337 350 17 357 8 353 21 17 5 351 322 313 317 325 319 327 348 354 354 331 335 326 315
119 118 120 121 116 122 127 130 129 130 119 104 88 62 24 2 4 3 13 8 338 314 312 315 326 335 32 18 1 356 326 325 318 308 337 350 10 8 349 329 325 324 320
116 112 114 117 117 114 114 117 111 126 134 117 99 65 9 3 359 357 4 351 307 288 296 321 325 305 10 79 9 345 322 326 329 330 344 36 22 360 351 333 318 310 315
108 106 106 109 106 105 109 110 100 99 107 101 98 74 32 340 353 29 338 327 331 310 278 290 307 284 92 88 40 352 326 328 325 324 333 4 354 338 326 315 301 294 301
115 122 114 109 108 112 124 125 110 85 86 94 92 89 21 318 18 21 321 311 298 291 281 273 289 302 108 73 35 310 280 302 316 321 338 355 347 327 312 304 290 294 303
126 131 132 129 123 119 130 131 111 99 86 86 75 58 348 341 305 261 270 274 280 293 301 297 283 282 270 132 288 270 286 307 314 324 336 323 308 310 304 297 301 303 300
134 140 141 137 131 130 126 112 100 100 105 78 313 261 236 237 256 268 265 266 304 320 328 322 319 314 337 27 15 324 297 297 304 313 311 306 300 299 308 321 323 296 303
133 138 141 146 145 128 115 126 129 140 190 225 243 248 240 233 228 241 282 272 13 48 293 325 336 345 357 342 320 302 308 320 325 313 293 295 306 321 315 304 296 286 294
142 159 162 163 162 151 139 137 156 200 234 244 252 256 252 243 241 215 202 137 176 167 190 217 256 355 353 288 312 314 304 304 316 319 300 299 305 308 309 316 314 309 309